Location: Newark
(50.8964°N, 1.4048°W)
Time: 14:38:13
(UTC+00:00)

N. Korean satellite - Pass Details

Date: 03 February 2020
Orbit: 456 x 505 km, 97.2° (Epoch: 29 February)

Event Time Altitude Azimuth Distance (km) Brightness Sun altitude
Rises 06:31:58 0° 7° (N) 2,570 10.2 -10.9°
Reaches altitude 10° 06:34:05 10° 1° (N) 1,692 9.2 -10.6°
Maximum altitude 06:37:34 44° 289° (WNW) 699 6.9 -10.1°
Drops below altitude 10° 06:41:04 10° 217° (SW) 1,701 9.1 -9.5°
Sets 06:43:12 0° 211° (SSW) 2,586 10.1 -9.2°
